Location: Edemissen
(51.7689°N, 9.8634°E)
Time: 04:37:56
(UTC+00:00)

NOAA 18 - Pass Details

Date: 12 August 2025
Orbit: 837 x 856 km, 98.8° (Epoch: 14 May)

Event Time Altitude Azimuth Distance (km) Brightness Sun altitude
Exits shadow 23:21:46 10° 252° (WSW) 2,487 7.5 -23.6°
Reaches altitude 10° 23:21:51 10° 253° (WSW) 2,475 7.5 -23.6°
Maximum altitude 23:24:02 12° 277° (W) 2,316 7.5 -23.6°
Drops below altitude 10° 23:26:15 10° 301° (WNW) 2,488 8.0 -23.6°
Sets 23:30:19 0° 330° (NNW) 3,435 9.3 -23.6°
